Kosmos-2433

operational
NORAD ID: 32277 Int'l Des: 2007-052 Owner: KVR/IACG Country: RU Constellation: GLONASS
MEOCIRCULAR

Kosmos-2433について

説明を読み込み中...

リアルタイム位置

3D地球を読み込み中...

次回通過

高度履歴

Altitude vs Time

uPlot chart will show altitude changes over time

軌道要素

1 32277U 07052C 25301.14581892 -.00000017 00000-0 00000-0 0 9993
2 32277 65.7182 323.6659 0015577 181.6947 185.4364 2.13209132140275
Epoch: Oct 28, 2025 • Age: 107 hours

現在のステータス

高度 19086.8 km
速度 3.96 km/s
衛星直下点 -15.06°S, 111.6°W
打ち上げ日 Oct 26, 2007
運用期間 18 years
タイプ other

技術仕様

分類 Payload
質量 1450.00 kg
乾燥質量 1200.00 kg
総質量 1450.00 kg
長さ 4.00 m
直径 1.50 m
スパン 7.80 m
形状 Cyl + Ant + 2 Pan
製造者 RESH
バスタイプ Uragan
フェーズステータス In Orbit
所有者/国 KVR/IACG/RU

大規模コンステレーション

Loading constellations...